星链-34256 (STARLINK-34256)

导读

STARLINK-34256是美国SpaceX星链星座的卫星,于2025年6月3日发射,属于星链项目低轨互联网卫星组网的组成部分。星链系统旨在为全球提供高速低延迟互联网覆盖,该卫星延续星链设计,运行在近地轨道,承担全球偏远地区网络接入、补充全球网络覆盖的任务,是美国低轨星座部署的一环。

基本信息
目录编号:
64249
目录名称:
STARLINK-34256
国际标识:
2025-119S
轨道中心:
EARTH
卫星名称:
星链-34256
卫星全名:
星链-34256 (STARLINK-34256)
卫星状态:
在轨 (已飞行458 天)
发射日期:
2025-06-03 UTC
国别 :
美国 (US)
星等 :
--
轨道信息
数据来源 国际轨道数据 AOE轨道数据
星历时间 2026-09-04T02:00:53+0800
18小时前
查看轨道信息
2026-09-02T17:00:00+0800
2天前
查看轨道信息
半长轴 6861.147km 6861.206km
偏心率 0.0001612 0.0001789
轨道倾角 43.005° 43.005°
近地点辐角 267.553° 272.745°
升交点赤经 21.263° 29.033°
平近点角 92.514° 73.542°
近地点 481.903km 481.841km
远地点 484.117km 484.297km
周期 94.266分钟 94.267分钟
每日圈数 15.275933 15.275734
详细信息
固有亮度:
5
最大亮度:
2.5
卫星平台:
Starlink V1.0
覆盖范围:
全球
运营商:
太空探索技术公司
运营商所在国:
美国
制造商(研发单位):
太空探索技术公司
制造商所在国:
美国
使用方式:
暂无
卫星简介
Starlink 计划是 SpaceX 推出的全球卫星互联网项目,通过发射低轨道卫星,为全球尤其是偏远地区提供高速、低延迟的互联网服务。自 2019 年起,Starlink 已部署数千颗卫星,旨在缩小全球数字鸿沟,推动互联网普及。该项目还为军事、航空等行业提供通信支持,带来广泛经济效益。
2D轨道图
3D轨道图
轨道高度分析图
轨道倾角分析图
轨道综合分析图
查看轨道综合分析图
交会数据列表
事件ID 空间交会对象 最接近时刻(TCA) 交会距离 交会风险概率(CRP) 交会风险指数(CRI) 操作
CDM_260906-004205-845806-424921
2026-09-06T
00:42:41+0000
0.378 km
远距离
2.542339E-4 高风险 0.83
CDM_260905-150205-733506-424921
2026-09-05T
15:02:02+0000
0.376 km
远距离
2.073612E-4 高风险 0.81
CDM_260905-224805-980106-424921
2026-09-05T
22:48:02+0000
0.596 km
远距离
8.903164E-5 中风险 0.74
CDM_260906-171805-765006-424921
2026-09-06T
17:18:45+0000
0.740 km
远距离
5.539571E-5 中风险 0.7
CDM_260905-070604-690606-424922
KSM1-C (46906)
2026-09-05T
07:06:05+0000
0.746 km
远距离
4.195414E-5 中风险 0.67
CDM_260905-233905-733506-424921
2026-09-05T
23:39:52+0000
0.709 km
远距离
3.975609E-5 中风险 0.67
CDM_260906-103405-980106-424921
2026-09-06T
10:34:11+0000
1.347 km
极远距离
6.215534E-6 低风险 0.51
CDM_260906-120805-980106-424921
2026-09-06T
12:08:20+0000
1.358 km
极远距离
6.049046E-6 低风险 0.51
CDM_260905-112106-187206-424921
OBJECT D (61872)
2026-09-05T
11:21:05+0000
1.417 km
极远距离
5.754585E-6 低风险 0.5
CDM_260906-154405-765006-424921
2026-09-06T
15:44:36+0000
1.833 km
极远距离
2.800327E-6 低风险 0.44